Flag for Israel Weather past 2 weeks in Rishon LeZion, Israel

Now
86 °F

Sunny.


Feels Like: 83 °F
Forecast: 58 / 71 °F
Wind: 9 mph from Southwest

Location: Ben Gurion International Airport

Current Time: Feb 27, 2015 at 2:43:19 PM

Latest Report: Feb 27, 2015 at 2:20 PM


Visibility: 10 mi

Pressure: 29.89 "Hg

Humidity: 19%

Dew point: 39 °F

Location of Rishon LeZionLocation

Historic Weather in Rishon LeZion — Graph

°F

Rishon LeZion temperature yesterday

Maximum temperature yesterday: 77 °F (at 3:50 PM)
Minimum temperature yesterday: 50 °F (at 3:20 AM)
Average temperature yesterday: 64 °F

Past Weeks' High & Low Weather Summary

 TemperatureHumidityPressure
High84 °F (Feb 27, 12:50 PM)94% (Feb 14, 4:50 AM)30.21 "Hg (Feb 14, 4:50 AM)
Low41 °F (Feb 19, 11:20 PM)19% (Feb 27, 11:50 AM)29.71 "Hg (Feb 20, 4:50 AM)
Average56 °F68%30.00 "Hg
* Reported Feb 12 1:20 PM — Feb 27 1:20 PM, Rishon LeZion, Weather by CustomWeather, © 2015

Note: Actual official high and low records may vary slightly from our data, if they occured in-between our weather recording intervals... More about our weather records

Advertising

Rishon LeZion weather history for previous 24 hours

 ConditionsComfort  
Time TempWeatherWind HumidityBarometerVisibility
1:20 PM
Fri, Feb 27
84 °FSunny.8 mph22%29.89 "Hg10 mi
12:50 PM84 °FSunny.9 mph20%29.92 "Hg10 mi
12:20 PM82 °FSunny.12 mph19%29.92 "Hg10 mi
11:50 AM82 °FSunny.13 mph19%29.92 "Hg10 mi
11:20 AM81 °FSunny.14 mph21%29.95 "Hg10 mi
10:50 AM81 °FSunny.8 mph20%29.95 "Hg10 mi
10:20 AM79 °FSunny.6 mph21%29.95 "Hg10 mi
9:50 AM77 °FSunny.6 mph21%29.98 "Hg10 mi
9:20 AM75 °FSunny.9 mph22%29.98 "Hg10 mi
8:50 AM73 °FSunny.7 mph23%29.98 "Hg10 mi
8:20 AM72 °FSunny.7 mph25%29.98 "Hg10 mi
7:50 AM68 °FSunny.7 mph26%29.95 "Hg10 mi
7:20 AM66 °FSunny.10 mph30%29.95 "Hg10 mi
6:50 AM64 °FPassing clouds.5 mph30%29.95 "HgN/A
6:20 AM66 °FSunny.8 mph28%29.95 "Hg10 mi
5:20 AM66 °FClear.10 mph26%29.95 "Hg10 mi
4:50 AM66 °FClear.1 mph28%29.92 "Hg10 mi
4:20 AM66 °FClear.9 mph28%29.92 "Hg10 mi
3:50 AM66 °FClear.15 mph28%29.92 "Hg10 mi
3:20 AM68 °FClear.13 mph26%29.95 "Hg10 mi
2:50 AM68 °FClear.7 mph26%29.95 "Hg10 mi
2:20 AM68 °FClear.6 mph26%29.95 "Hg10 mi
1:50 AM66 °FClear.9 mph30%29.95 "Hg10 mi
1:20 AM68 °FClear.12 mph28%29.98 "Hg10 mi
12:50 AM68 °FClear.10 mph28%29.98 "Hg10 mi
12:20 AM68 °FClear.8 mph28%29.98 "Hg10 mi
11:50 PM
Thu, Feb 26
70 °FClear.10 mph27%30.01 "Hg10 mi
11:20 PM70 °FClear.12 mph27%30.01 "Hg10 mi
10:50 PM70 °FClear.8 mph29%30.01 "Hg10 mi
10:20 PM70 °FClear.12 mph29%30.01 "Hg10 mi
9:50 PM64 °FClear.2 mph43%30.04 "Hg10 mi
9:20 PM66 °FClear.5 mph40%30.04 "Hg10 mi
8:50 PM64 °FClear.8 mph43%30.04 "Hg10 mi
8:20 PM64 °FClear.8 mph46%30.04 "Hg10 mi
7:50 PM64 °FClear.9 mph49%30.04 "Hg10 mi
7:20 PM64 °FClear.9 mph52%30.04 "Hg10 mi
6:50 PM66 °FClear.7 mph49%30.04 "Hg10 mi
6:20 PM68 °FClear.8 mph43%30.04 "Hg10 mi
5:50 PM73 °FClear.5 mph36%30.04 "Hg10 mi
5:20 PM73 °FSunny.6 mph36%30.04 "Hg10 mi
4:50 PM75 °FSunny.9 mph31%30.04 "Hg10 mi
4:20 PM77 °FSunny.15 mph30%30.04 "Hg10 mi
3:50 PM77 °FSunny.12 mph30%30.04 "Hg10 mi
3:20 PM75 °FSunny.14 mph31%30.04 "Hg10 mi
2:50 PM75 °FSunny.14 mph34%30.04 "Hg10 mi
2:20 PM75 °FSunny.18 mph34%30.07 "Hg10 mi
Weather by CustomWeather, © 2015

See weather overviewHow to use our weather pages